SCP
0 0 0 0 0 0 0 0 0 0 0 0 0 0 0 0 0 0 0 0 0 0 0 0 0 0 0 0 0 0 0 0 0 0 0 0 0 0 0 0 0 0 0 0
0 0 0 0 0 0 0 0 0 0 0 0 0 0 0 0 0 0 0 0 0 0 0 0 0 0 0 0 0 0 0 0 0 0 0 0 0 0 0 0 0 0 0 0
0 0 0 0 0 0 0 0 0 0 0 0 0 0 0 0 0 0 0 0 0 0 0 0 0 0 0 0 0 0 0 0 0 0 0 0 0 0 0 0 0 0 0 0
0 0 0 0 0 0 0 0 0 0 0 0 0 0 0 0 0 0 0 0 0 0 0 0 0 0 0 0 0 0 0 0 0 0 0 0 0 0 0 0 0 0 0 0
0 0 0 0 0 0 0 0 0 0 0 0 0 0 0 0 0 0 0 0 0 0 0 0 0 0 0 0 0 0 0 0 0 0 0 0 0 0 0 0 0 0 0 -0
0 0 0 0 0 0 0 0 0 0 0 0 0 0 0 0 0 0 0 0 0 0 0 0 0 0 0 0 0 0 0 0 0 0 0 0 0 0 0 0 0 0 0 0
0 0 0 0 0 0 0 0 0 0 0 0 0 0 0 0 0 0 0 0 0 0 0 0 0 0 0 0 0 0 0 0 0 0 0 0 0 0 0 0 0 0 0 0
0 0 0 0 0 0 0 0 0 0 0 0 0 0 0 0 0 0 0 0 0 0 0 0 0 0 0 0 0 0 0 0 0 0 0 0 0 0 0 0 0 0 0 0
0 0 0 0 0 0 0 0 0 0 0 0 0 0 0 0 0 0 0 0 0 0 0 0 0 0 0 0 0 0 0 0 0 0 0 0 0 0 0 0 0 0 0 0
0 0 0 0 0 0 0 0 0 0 0 0 0 0 0 0 0 0 0 0 0 0 0 0 0 0 0 0 0 0 0 0 0 0 0 0 0 0 0 0 0 0 0 0
0 0 0 0 0 0 0 0 0 0 0 0 0 0 0 0 0 0 0 0 0 0 0 0 0 0 0 0 0 0 0 0 0 0 0 0 0 0 0 0 0 0 0 0
0 0 0 0 0 0 0 0 0 0 0 0 0 0 0 0 0 0 0 0 0 0 0 0 0 0 0 0 0 0 0 0 0 0 0 0 -0 0 0 0 0 0 0 0
0 0 0 0 0 0 0 0 0 0 0 0 0 0 0 0 0 0 0 0 0 0 0 0 0 0 0 0 0 0 0 0 0 0 0 -0 -0 -0 0 0 0 0 0 0
0 0 0 0 0 0 0 0 0 0 0 0 0 0 0 0 0 0 0 0 0 0 0 0 0 0 0 0 0 0 0 0 0 0 0 0 -0 0 0 0 0 0 0 0
0 0 0 0 0 0 0 0 0 0 0 0 0 0 0 0 0 0 0 0 0 0 0 0 0 0 0 0 0 0 0 0 0 0 0 0 0 0 0 0 0 0 0 0
0 0 0 0 0 0 0 0 0 0 0 0 0 0 0 0 0 0 0 0 0 0 0 0 0 0 0 0 0 0 0 0 0 0 0 0 0 0 0 0 0 0 0 0
0 0 0 0 0 0 0 0 0 0 0 0 0 0 0 0 0 0 0 0 0 0 0 0 0 0 0 0 0 0 0 0 0 0 0 0 0 0 0 0 0 0 0 0
0 0 0 0 0 0 0 0 0 0 0 0 0 0 0 0 0 0 0 0 0 0 0 0 0 0 0 -0 0 0 0 0 0 0 0 0 0 0 0 0 0 0 0 0
0 -0 -0 0 -0 0 0 0 0 0 0 0 0 0 0 0 0 0 0 0 0 0 0 0 0 0 0 -0 0 0 0 0 0 0 0 0 0 -0 0 0 0 0 0 0
-0 -0 -0 0 -0 -0 0 0 0 0 0 0 0 0 0 0 0 0 0 0 0 0 0 0 0 0 0 0 0 0 0 0 0 0 0 0 -0 -0 0 0 0 0 0 0
-0 -0 0 0 -0 0 0 0 0 0 0 0 0 0 0 0 0 0 0 0 0 0 0 0 -0 -0 -0 0 0 0 0 0 0 0 0 -0 -0 -0 -0 0 0 0 0 0
-0 0 0 0 0 0 0 0 0 0 0 0 0 0 0 0 0 0 0 0 0 0 0 0 -0 -0 -0 0 0 0 0 0 0 0 0 0 0 0 -0 0 0 0 0 0
-0 -0 0 0 0 0 0 0 0 0 0 0 0 0 0 0 0 0 0 0 0 0 0 0 -0 -0 0 0 0 0 0 0 0 -0 -0 -0 0 0 0 0 0 0 -0 -0
0 0 0 0 0 0 0 0 0 0 0 0 0 0 0 0 0 0 0 0 0 0 0 -0 -0 0 0 0 0 0 0 0 0 -0 -0 -0 0 0 0 0 0 0 -0 -0
0 0 0 0 0 0 0 0 0 0 0 0 0 0 0 0 0 0 0 0 0 0 0 0 0 0 0 0 0 0 0 0 0 0 0 0 0 0 0 0 0 0 0 0
0 0 0 0 0 0 0 0 0 0 0 0 0 0 0 0 0 0 0 0 0 0 0 0 0 0 0 0 0 0 0 0 0 0 0 0 0 0 0 0 0 0 0 0
0 0 0 0 0 0 0 0 0 0 0 0 0 0 0 0 0 0 0 0 0 0 0 0 0 0 0 0 0 0 0 0 0 0 0 0 0 0 0 0 0 0 0 0
Wind_Speed_500mb
50 68 60 43 51 51 69 47 5 24 36 8 3 6 7 6 11 8 4 4 6 9 12 8 7 6 3 14 13 4 4 3 11 5 4 4 9 8 8 5 4 13 14 20
58 48 69 49 56 62 76 26 12 32 43 10 11 4 3 6 9 9 12 11 4 4 8 5 6 6 6 17 12 9 9 5 10 6 5 6 8 17 16 2 3 18 9 17
59 57 66 59 48 57 66 27 7 11 26 10 4 8 8 6 12 8 8 7 10 8 6 6 6 10 9 14 10 5 8 5 11 14 10 4 11 16 18 16 9 11 27 46
73 63 55 73 52 65 82 30 11 20 12 16 13 10 11 10 13 12 18 7 19 14 10 7 10 10 10 10 13 12 7 9 9 24 36 34 35 38 33 34 30 16 33 29
75 68 60 74 54 67 87 36 15 21 13 23 35 15 18 19 10 19 13 14 22 24 11 10 13 15 13 9 19 14 8 6 9 12 7 14 27 33 31 33 31 38 49 56
69 85 69 70 64 89 71 48 31 33 26 16 25 17 20 22 21 19 7 22 7 23 17 12 17 11 12 16 16 20 11 5 4 10 9 27 18 18 27 15 19 14 17 16
72 74 86 72 67 115 79 53 42 18 9 16 19 15 38 24 21 13 1 1 9 13 30 35 26 30 22 12 8 16 11 6 3 10 12 7 3 3 5 23 18 32 28 28
76 80 89 81 86 72 114 70 58 25 7 30 13 15 15 20 24 12 11 8 9 37 15 6 5 3 4 3 1 9 10 6 5 6 5 22 8 7 10 12 11 17 30 23
67 77 82 92 84 83 136 79 70 52 17 23 33 25 32 12 15 9 6 9 39 16 4 5 10 10 5 7 5 8 9 7 6 4 5 10 4 11 5 3 12 13 12 11
64 63 75 77 95 88 80 68 84 56 24 16 55 15 28 26 17 8 15 21 12 11 5 6 10 7 2 9 17 14 10 10 19 15 10 20 13 16 12 2 1 17 12 9
55 57 66 72 84 81 86 74 73 86 17 35 60 49 39 30 26 12 31 16 7 5 12 10 9 10 13 7 12 16 21 20 12 10 12 18 26 16 13 2 13 16 18 12
48 56 59 57 70 86 73 65 75 83 46 18 63 57 64 62 65 49 57 14 18 25 9 9 5 6 7 6 7 15 10 14 10 23 14 4 52 5 36 11 14 18 18 10
29 40 51 55 56 67 85 75 52 83 47 20 40 41 50 57 48 53 30 22 29 24 16 12 4 9 11 11 13 14 14 27 9 2 14 40 48 55 53 34 36 28 23 19
30 39 36 45 59 56 85 103 76 85 37 13 12 32 46 50 55 57 59 25 50 27 22 4 5 6 14 5 1 8 5 28 12 15 31 46 59 57 53 53 58 54 52 46
34 38 40 44 62 60 78 96 72 90 35 12 16 22 31 42 50 53 58 41 49 26 15 5 7 4 7 3 1 12 24 16 15 15 22 20 15 17 18 31 44 47 43 38
36 39 44 46 55 67 55 54 78 89 88 16 8 9 15 25 32 36 40 44 38 20 17 10 9 10 8 8 9 10 63 63 73 33 27 33 27 19 22 23 26 32 43 39
39 42 51 49 47 76 57 25 51 104 91 20 11 7 10 30 30 24 29 32 13 12 9 8 7 9 10 6 16 13 35 48 62 69 57 33 42 21 18 29 26 28 37 42
41 50 56 47 47 59 57 47 37 98 64 23 10 9 12 27 10 10 15 12 12 10 5 6 7 4 7 13 21 32 57 54 52 59 61 57 31 28 39 32 25 35 46 46
41 44 49 61 53 32 65 57 50 109 35 20 12 18 12 29 10 12 8 9 5 8 6 6 8 8 18 19 40 61 56 38 31 25 60 64 68 50 32 36 37 39 45 45
37 31 20 19 38 42 65 56 41 27 14 16 7 20 10 23 13 7 12 7 5 7 6 12 10 13 40 67 63 65 58 39 39 38 34 53 75 78 66 57 48 44 42 42
25 11 23 25 75 53 30 18 19 8 7 13 13 13 17 16 7 9 3 6 6 7 6 7 9 11 14 81 103 105 107 93 79 59 44 46 37 53 69 68 60 52 49 49
18 24 51 52 33 23 13 11 10 12 15 14 14 20 21 16 13 10 6 5 4 8 7 4 10 9 65 53 55 69 82 100 97 92 87 68 51 34 39 54 65 60 49 48
42 26 19 14 5 12 18 19 9 13 15 24 30 16 18 15 12 13 6 11 8 4 6 9 11 21 19 22 39 49 29 42 66 78 86 92 73 48 37 43 47 59 56 49
20 13 10 7 15 13 9 13 16 16 46 68 53 21 9 12 7 6 10 3 3 5 8 14 8 27 23 25 28 27 28 40 50 55 67 82 92 70 43 37 42 50 58 57
14 8 10 7 10 20 16 34 32 37 86 75 34 22 16 7 10 5 10 6 11 14 11 8 15 10 13 11 11 13 19 28 41 50 57 60 77 80 50 38 43 45 52 55
10 5 1 6 17 12 12 38 63 81 76 53 18 11 9 7 12 12 14 12 14 9 9 23 9 9 12 10 7 16 18 21 23 32 44 43 63 82 64 46 44 48 49 51
4 3 2 7 27 17 31 52 61 89 56 8 8 11 7 11 7 4 10 11 6 7 15 19 14 5 9 10 11 17 22 10 10 17 28 37 60 73 67 56 48 45 47 49
Wind_Direction_500mb
256 233 231 232 242 255 211 188 151 173 167 131 238 214 200 166 169 192 201 197 123 179 158 197 241 193 196 159 154 199 111 287 268 267 146 321 245 231 193 232 246 252 282 271
247 246 227 221 243 238 209 175 139 173 173 162 214 234 220 238 173 202 194 184 144 141 180 229 218 175 134 166 155 197 172 210 299 206 184 165 230 204 225 239 279 243 271 273
243 238 225 218 240 230 210 170 151 139 190 198 225 163 201 191 217 221 203 134 129 140 153 187 213 197 170 182 174 176 164 237 239 259 332 10 242 235 222 185 239 268 242 275
240 234 231 217 234 222 218 190 198 166 178 205 189 188 178 170 189 223 198 194 219 176 157 189 221 174 154 173 181 194 225 255 229 259 272 278 272 264 250 235 223 237 274 307
240 233 229 218 228 217 208 200 166 154 177 150 182 188 196 200 139 169 225 230 202 195 168 197 186 160 182 179 178 198 214 272 318 284 271 262 273 261 241 237 241 254 263 276
238 228 229 220 220 212 209 201 184 175 165 156 174 200 192 202 140 215 255 222 175 206 215 117 93 111 115 156 161 189 179 253 311 273 346 310 275 256 210 200 204 207 228 251
233 231 229 219 208 212 212 207 170 161 180 185 202 188 189 173 198 203 167 281 233 139 139 110 87 71 80 116 122 185 163 170 258 289 320 268 34 181 182 217 247 217 261 276
235 226 230 221 220 220 214 212 199 182 167 189 173 136 163 165 169 169 169 183 220 151 144 105 111 84 66 66 74 187 159 169 243 286 284 297 267 188 196 198 288 231 233 267
235 223 230 223 225 222 211 223 212 200 142 213 178 159 171 161 171 132 144 152 148 181 184 166 202 225 164 178 135 193 202 228 245 180 244 262 53 146 127 134 277 164 208 285
229 229 225 225 226 228 221 219 215 210 214 160 176 170 175 166 153 138 134 146 177 188 190 166 210 226 4 192 178 164 168 201 226 212 256 276 245 149 135 202 211 160 191 240
228 229 230 219 219 223 218 229 212 205 217 180 196 193 157 154 166 148 144 109 187 180 198 192 201 213 201 185 150 175 176 172 196 180 218 271 156 133 198 135 148 165 182 206
214 227 230 232 224 219 224 233 217 209 210 196 201 205 212 215 215 179 168 189 155 169 178 211 142 186 167 191 217 194 221 208 191 201 218 123 190 226 210 210 205 203 196 210
238 226 228 222 223 224 225 220 215 202 204 191 195 207 206 215 213 209 164 210 179 192 188 146 148 227 169 186 225 198 232 212 237 165 236 240 234 246 245 238 231 234 229 255
266 236 225 231 223 219 225 218 217 199 189 147 189 201 202 209 215 211 207 207 187 179 173 151 178 231 203 221 12 223 144 153 203 257 279 277 261 247 250 249 249 246 250 259
267 248 237 248 234 237 224 217 218 206 181 135 131 181 202 209 207 212 214 214 183 158 150 173 229 141 177 187 290 233 185 183 190 231 215 230 264 272 248 247 248 241 240 227
261 261 272 252 228 226 221 214 226 212 208 173 136 149 170 181 194 202 196 183 178 169 146 196 222 215 210 215 241 227 213 216 231 247 266 250 249 254 262 250 246 239 223 223
253 262 271 256 228 213 209 198 194 198 189 177 105 117 139 157 154 153 166 175 171 144 154 223 202 199 215 252 247 175 228 237 242 244 244 253 246 243 246 251 261 233 211 209
263 268 270 264 240 223 219 205 183 191 182 147 136 118 142 163 133 118 144 136 142 164 190 220 211 195 216 249 248 251 251 247 245 248 243 238 246 242 239 247 244 210 200 208
261 274 280 270 267 212 199 198 178 179 182 136 151 146 161 162 118 121 124 143 153 183 223 211 185 193 226 224 228 240 245 234 234 252 240 239 236 242 239 234 228 218 211 212
265 269 288 250 192 185 163 159 179 196 151 129 121 121 130 155 142 123 129 177 160 198 192 149 222 251 244 246 246 257 256 242 231 232 232 233 232 233 231 229 230 230 223 217
244 237 224 174 168 155 168 165 183 122 94 118 118 120 125 152 149 127 193 159 164 223 141 225 244 259 237 244 241 245 247 249 246 252 262 254 258 244 231 226 226 228 226 227
229 232 288 170 170 186 148 145 170 193 146 141 129 124 117 126 132 103 159 159 161 236 139 233 259 237 245 246 243 248 241 243 247 244 243 246 252 249 235 232 229 227 227 226
276 247 228 205 137 153 170 160 117 125 148 147 148 130 126 125 96 94 149 175 189 125 207 236 245 253 280 275 247 232 244 231 238 243 243 242 239 238 235 229 227 226 226 225
239 223 237 191 178 174 171 152 140 126 137 139 137 112 106 111 108 135 143 41 192 225 242 239 251 265 261 236 241 244 246 250 247 244 244 234 222 224 230 227 222 219 219 221
258 217 213 237 91 59 89 109 109 128 136 133 113 81 97 101 107 70 128 108 238 222 233 225 244 234 230 245 272 277 271 258 251 241 238 232 217 213 220 220 222 218 218 221
247 253 204 135 103 109 107 119 120 143 139 134 115 118 126 122 128 173 189 168 227 231 217 229 193 152 70 48 358 346 315 273 243 235 240 230 209 204 210 216 220 220 221 221
352 24 7 326 96 133 134 141 141 152 150 146 133 117 114 111 180 201 178 216 234 278 239 181 177 51 3 346 341 344 350 313 257 244 242 225 203 201 207 214 216 218 221 224
Wind_Speed_850mb
50 68 60 43 51 51 69 47 5 24 36 8 3 6 7 6 11 8 4 4 6 9 12 8 7 6 3 14 13 4 4 3 11 5 4 4 9 8 8 5 4 13 14 20
58 48 69 49 56 62 76 26 12 32 43 10 11 4 3 6 9 9 12 11 4 4 8 5 6 6 6 17 12 9 9 5 10 6 5 6 8 17 16 2 3 18 9 17
59 57 66 59 48 57 66 27 7 11 26 10 4 8 8 6 12 8 8 7 10 8 6 6 6 10 9 14 10 5 8 5 11 14 10 4 11 16 18 16 9 11 27 46
73 63 55 73 52 65 82 30 11 20 12 16 13 10 11 10 13 12 18 7 19 14 10 7 10 10 10 10 13 12 7 9 9 24 36 34 35 38 33 34 30 16 33 29
75 68 60 74 54 67 87 36 15 21 13 23 35 15 18 19 10 19 13 14 22 24 11 10 13 15 13 9 19 14 8 6 9 12 7 14 27 33 31 33 31 38 49 56
69 85 69 70 64 89 71 48 31 33 26 16 25 17 20 22 21 19 7 22 7 23 17 12 17 11 12 16 16 20 11 5 4 10 9 27 18 18 27 15 19 14 17 16
72 74 86 72 67 115 79 53 42 18 9 16 19 15 38 24 21 13 1 1 9 13 30 35 26 30 22 12 8 16 11 6 3 10 12 7 3 3 5 23 18 32 28 28
76 80 89 81 86 72 114 70 58 25 7 30 13 15 15 20 24 12 11 8 9 37 15 6 5 3 4 3 1 9 10 6 5 6 5 22 8 7 10 12 11 17 30 23
67 77 82 92 84 83 136 79 70 52 17 23 33 25 32 12 15 9 6 9 39 16 4 5 10 10 5 7 5 8 9 7 6 4 5 10 4 11 5 3 12 13 12 11
64 63 75 77 95 88 80 68 84 56 24 16 55 15 28 26 17 8 15 21 12 11 5 6 10 7 2 9 17 14 10 10 19 15 10 20 13 16 12 2 1 17 12 9
55 57 66 72 84 81 86 74 73 86 17 35 60 49 39 30 26 12 31 16 7 5 12 10 9 10 13 7 12 16 21 20 12 10 12 18 26 16 13 2 13 16 18 12
48 56 59 57 70 86 73 65 75 83 46 18 63 57 64 62 65 49 57 14 18 25 9 9 5 6 7 6 7 15 10 14 10 23 14 4 52 5 36 11 14 18 18 10
29 40 51 55 56 67 85 75 52 83 47 20 40 41 50 57 48 53 30 22 29 24 16 12 4 9 11 11 13 14 14 27 9 2 14 40 48 55 53 34 36 28 23 19
30 39 36 45 59 56 85 103 76 85 37 13 12 32 46 50 55 57 59 25 50 27 22 4 5 6 14 5 1 8 5 28 12 15 31 46 59 57 53 53 58 54 52 46
34 38 40 44 62 60 78 96 72 90 35 12 16 22 31 42 50 53 58 41 49 26 15 5 7 4 7 3 1 12 24 16 15 15 22 20 15 17 18 31 44 47 43 38
36 39 44 46 55 67 55 54 78 89 88 16 8 9 15 25 32 36 40 44 38 20 17 10 9 10 8 8 9 10 63 63 73 33 27 33 27 19 22 23 26 32 43 39
39 42 51 49 47 76 57 25 51 104 91 20 11 7 10 30 30 24 29 32 13 12 9 8 7 9 10 6 16 13 35 48 62 69 57 33 42 21 18 29 26 28 37 42
41 50 56 47 47 59 57 47 37 98 64 23 10 9 12 27 10 10 15 12 12 10 5 6 7 4 7 13 21 32 57 54 52 59 61 57 31 28 39 32 25 35 46 46
41 44 49 61 53 32 65 57 50 109 35 20 12 18 12 29 10 12 8 9 5 8 6 6 8 8 18 19 40 61 56 38 31 25 60 64 68 50 32 36 37 39 45 45
37 31 20 19 38 42 65 56 41 27 14 16 7 20 10 23 13 7 12 7 5 7 6 12 10 13 40 67 63 65 58 39 39 38 34 53 75 78 66 57 48 44 42 42
25 11 23 25 75 53 30 18 19 8 7 13 13 13 17 16 7 9 3 6 6 7 6 7 9 11 14 81 103 105 107 93 79 59 44 46 37 53 69 68 60 52 49 49
18 24 51 52 33 23 13 11 10 12 15 14 14 20 21 16 13 10 6 5 4 8 7 4 10 9 65 53 55 69 82 100 97 92 87 68 51 34 39 54 65 60 49 48
42 26 19 14 5 12 18 19 9 13 15 24 30 16 18 15 12 13 6 11 8 4 6 9 11 21 19 22 39 49 29 42 66 78 86 92 73 48 37 43 47 59 56 49
20 13 10 7 15 13 9 13 16 16 46 68 53 21 9 12 7 6 10 3 3 5 8 14 8 27 23 25 28 27 28 40 50 55 67 82 92 70 43 37 42 50 58 57
14 8 10 7 10 20 16 34 32 37 86 75 34 22 16 7 10 5 10 6 11 14 11 8 15 10 13 11 11 13 19 28 41 50 57 60 77 80 50 38 43 45 52 55
10 5 1 6 17 12 12 38 63 81 76 53 18 11 9 7 12 12 14 12 14 9 9 23 9 9 12 10 7 16 18 21 23 32 44 43 63 82 64 46 44 48 49 51
4 3 2 7 27 17 31 52 61 89 56 8 8 11 7 11 7 4 10 11 6 7 15 19 14 5 9 10 11 17 22 10 10 17 28 37 60 73 67 56 48 45 47 49
Wind_Direction_850mb
256 233 231 232 242 255 211 188 151 173 167 131 238 214 200 166 169 192 201 197 123 179 158 197 241 193 196 159 154 199 111 287 268 267 146 321 245 231 193 232 246 252 282 271
247 246 227 221 243 238 209 175 139 173 173 162 214 234 220 238 173 202 194 184 144 141 180 229 218 175 134 166 155 197 172 210 299 206 184 165 230 204 225 239 279 243 271 273
243 238 225 218 240 230 210 170 151 139 190 198 225 163 201 191 217 221 203 134 129 140 153 187 213 197 170 182 174 176 164 237 239 259 332 10 242 235 222 185 239 268 242 275
240 234 231 217 234 222 218 190 198 166 178 205 189 188 178 170 189 223 198 194 219 176 157 189 221 174 154 173 181 194 225 255 229 259 272 278 272 264 250 235 223 237 274 307
240 233 229 218 228 217 208 200 166 154 177 150 182 188 196 200 139 169 225 230 202 195 168 197 186 160 182 179 178 198 214 272 318 284 271 262 273 261 241 237 241 254 263 276
238 228 229 220 220 212 209 201 184 175 165 156 174 200 192 202 140 215 255 222 175 206 215 117 93 111 115 156 161 189 179 253 311 273 346 310 275 256 210 200 204 207 228 251
233 231 229 219 208 212 212 207 170 161 180 185 202 188 189 173 198 203 167 281 233 139 139 110 87 71 80 116 122 185 163 170 258 289 320 268 34 181 182 217 247 217 261 276
235 226 230 221 220 220 214 212 199 182 167 189 173 136 163 165 169 169 169 183 220 151 144 105 111 84 66 66 74 187 159 169 243 286 284 297 267 188 196 198 288 231 233 267
235 223 230 223 225 222 211 223 212 200 142 213 178 159 171 161 171 132 144 152 148 181 184 166 202 225 164 178 135 193 202 228 245 180 244 262 53 146 127 134 277 164 208 285
229 229 225 225 226 228 221 219 215 210 214 160 176 170 175 166 153 138 134 146 177 188 190 166 210 226 4 192 178 164 168 201 226 212 256 276 245 149 135 202 211 160 191 240
228 229 230 219 219 223 218 229 212 205 217 180 196 193 157 154 166 148 144 109 187 180 198 192 201 213 201 185 150 175 176 172 196 180 218 271 156 133 198 135 148 165 182 206
214 227 230 232 224 219 224 233 217 209 210 196 201 205 212 215 215 179 168 189 155 169 178 211 142 186 167 191 217 194 221 208 191 201 218 123 190 226 210 210 205 203 196 210
238 226 228 222 223 224 225 220 215 202 204 191 195 207 206 215 213 209 164 210 179 192 188 146 148 227 169 186 225 198 232 212 237 165 236 240 234 246 245 238 231 234 229 255
266 236 225 231 223 219 225 218 217 199 189 147 189 201 202 209 215 211 207 207 187 179 173 151 178 231 203 221 12 223 144 153 203 257 279 277 261 247 250 249 249 246 250 259
267 248 237 248 234 237 224 217 218 206 181 135 131 181 202 209 207 212 214 214 183 158 150 173 229 141 177 187 290 233 185 183 190 231 215 230 264 272 248 247 248 241 240 227
261 261 272 252 228 226 221 214 226 212 208 173 136 149 170 181 194 202 196 183 178 169 146 196 222 215 210 215 241 227 213 216 231 247 266 250 249 254 262 250 246 239 223 223
253 262 271 256 228 213 209 198 194 198 189 177 105 117 139 157 154 153 166 175 171 144 154 223 202 199 215 252 247 175 228 237 242 244 244 253 246 243 246 251 261 233 211 209
263 268 270 264 240 223 219 205 183 191 182 147 136 118 142 163 133 118 144 136 142 164 190 220 211 195 216 249 248 251 251 247 245 248 243 238 246 242 239 247 244 210 200 208
261 274 280 270 267 212 199 198 178 179 182 136 151 146 161 162 118 121 124 143 153 183 223 211 185 193 226 224 228 240 245 234 234 252 240 239 236 242 239 234 228 218 211 212
265 269 288 250 192 185 163 159 179 196 151 129 121 121 130 155 142 123 129 177 160 198 192 149 222 251 244 246 246 257 256 242 231 232 232 233 232 233 231 229 230 230 223 217
244 237 224 174 168 155 168 165 183 122 94 118 118 120 125 152 149 127 193 159 164 223 141 225 244 259 237 244 241 245 247 249 246 252 262 254 258 244 231 226 226 228 226 227
229 232 288 170 170 186 148 145 170 193 146 141 129 124 117 126 132 103 159 159 161 236 139 233 259 237 245 246 243 248 241 243 247 244 243 246 252 249 235 232 229 227 227 226
276 247 228 205 137 153 170 160 117 125 148 147 148 130 126 125 96 94 149 175 189 125 207 236 245 253 280 275 247 232 244 231 238 243 243 242 239 238 235 229 227 226 226 225
239 223 237 191 178 174 171 152 140 126 137 139 137 112 106 111 108 135 143 41 192 225 242 239 251 265 261 236 241 244 246 250 247 244 244 234 222 224 230 227 222 219 219 221
258 217 213 237 91 59 89 109 109 128 136 133 113 81 97 101 107 70 128 108 238 222 233 225 244 234 230 245 272 277 271 258 251 241 238 232 217 213 220 220 222 218 218 221
247 253 204 135 103 109 107 119 120 143 139 134 115 118 126 122 128 173 189 168 227 231 217 229 193 152 70 48 358 346 315 273 243 235 240 230 209 204 210 216 220 220 221 221
352 24 7 326 96 133 134 141 141 152 150 146 133 117 114 111 180 201 178 216 234 278 239 181 177 51 3 346 341 344 350 313 257 244 242 225 203 201 207 214 216 218 221 224